Location: Arclight Observatory
(36.5667°N, 87.3333°W)
Time: 20:17:18
(UTC-05:00)

Daily predictions for brighter satellites

Satellite Brightness Start Highest point End
(mag) Time Altitude Azimuth Time Altitude Azimuth Time Altitude Azimuth
Cosmos 192 4.3 20:25:26 10° SSW 20:30:19 82° ESE 20:35:15 10° NNE
Meteor 1-13 Rocket 4.4 20:24:30 10° S 20:30:27 89° E 20:36:21 10° N
Meteor 1-29 3.9 20:27:42 10° NE 20:30:39 27° E 20:33:32 10° SSE
Cosmos 1833 Rocket 4.1 20:27:06 10° SE 20:30:40 17° E 20:34:14 10° ENE
CZ-2D R/B 3.5 20:27:36 10° S 20:31:24 74° WSW 20:35:13 10° NNW
H-2A R/B 4.1 20:29:13 10° SSW 20:32:41 39° W 20:36:10 10° NNW
DNEPR-1 R/B 3.7 20:31:41 10° NNW 20:36:01 85° WSW 20:40:51 10° SSE
Tiangong 2 3.2 20:34:07 10° WNW 20:36:54 26° N 20:39:40 10° NE
Cosmos 1025 Rocket 3.3 20:38:59 10° SSE 20:43:03 46° E 20:47:09 10° NNE
Okean 1-7 Rocket 3.8 20:38:58 10° S 20:43:18 54° E 20:47:43 10° NNE
Spot 2 Rocket 4.3 20:45:14 10° S 20:50:08 53° W 20:55:04 10° NNW
CZ-4B DEB 4.5 20:49:25 10° SSE 20:52:56 84° ENE 20:56:29 10° N
SL-27 R/B 4.4 20:51:12 10° SW 20:54:34 35° WNW 20:57:57 10° N
Meteor 2-4 Rocket 3.9 20:49:23 10° S 20:55:04 84° W 21:00:56 10° N
Cosmos 1624 Rocket 4.4 20:50:59 10° N 20:56:08 50° ENE 21:00:36 14° SE
Cosmos 1437 Rocket 3.4 20:54:56 10° N 20:58:34 38° ENE 21:01:22 15° SE
USA 186 3.4 20:58:29 10° SSW 21:01:21 32° W 21:04:10 10° NNW
Cosmos 1939 Rocket 2.7 21:00:34 10° SSE 21:04:25 86° ENE 21:08:18 10° N
ARGOS 4.4 21:02:00 14° ESE 21:05:28 25° ENE 21:09:49 10° NNE
Cosmos 2341 Rocket 4.5 21:00:31 10° N 21:06:34 44° ENE 21:11:29 15° SE
Hubble Space Telescope 2.2 21:03:49 10° SW 21:06:52 20° SSE 21:08:03 18° SE
Cosmos 1980 Rocket 4.3 21:04:31 10° NNE 21:07:00 13° NE 21:09:27 10° ENE
CZ-4B DEB 2.5 21:04:41 14° SSE 21:07:08 86° ENE 21:10:07 10° N
H-2A R/B 3.8 21:06:48 11° E 21:09:19 16° ENE 21:12:14 10° NNE
GPS 2-04 Rocket1 4.3 21:09:12 10° S 21:10:19 14° S 21:10:19 14° S
Envisat 3.4 21:07:33 10° S 21:12:34 65° W 21:17:37 10° NNW
Cosmos 2058 Rocket 4.0 21:11:54 10° NNE 21:15:54 32° ENE 21:18:01 21° SE
Cosmos 2056 Rocket 3.4 21:10:52 10° NNW 21:16:01 71° ENE 21:19:45 18° SSE
SPOT 5 3.9 21:16:39 18° ESE 21:18:35 25° ENE 21:22:11 10° NNE
SAR-Lupe-4 4.3 21:20:51 12° S 21:24:03 50° W 21:27:34 10° NNW
NOAA 11 4.4 21:21:16 20° SE 21:24:52 53° ENE 21:30:08 10° N
Cosmos 839 Rocket 4.5 21:22:40 10° NNW 21:29:24 71° ENE 21:35:05 22° SE
CZ-3A R/B 1.8 21:25:37 10° WSW 21:30:14 43° NW 21:32:06 10° NNE
Cosmos 2181 Rocket 4.0 21:25:10 10° S 21:31:26 67° E 21:37:40 10° NNE
Helios 1A 4.4 21:28:44 10° SSW 21:32:35 35° W 21:36:28 10° NNW
Meteor 1-4 Rocket 4.0 21:29:59 10° NNE 21:32:46 21° ENE 21:33:02 21° E
YAOGAN 6 2.8 21:31:01 20° S 21:33:14 62° W 21:36:44 10° NNW
OAO 2 Rocket 3.7 21:32:09 10° W 21:36:52 46° SSW 21:38:53 30° SE
Resurs 01 Rocket 4.4 21:35:28 10° WSW 21:37:20 12° W 21:39:11 10° WNW
Cosmos 1626 Rocket 4.4 21:38:00 28° ESE 21:38:38 30° E 21:42:24 10° NNE
Meteor 2-19 Rocket 4.4 21:33:14 10° N 21:39:24 86° E 21:43:53 20° S
COSMOS 2487 3.3 21:39:13 10° SSW 21:42:41 52° WNW 21:46:12 10° N
Cosmos 2082 Rocket 2.1 21:37:38 10° SSW 21:43:19 87° ESE 21:49:00 10° NNE
ERS-1 Rocket 3.0 21:41:26 22° S 21:44:42 79° WSW 21:49:44 10° NNW
TELKOM 3 4.3 21:44:01 10° NW 21:46:20 39° NE 21:46:40 37° ENE
Cosmos 921 Rocket 3.1 21:42:53 10° NNW 21:47:20 79° WSW 21:49:20 32° S
Cosmos 2228 3.0 21:43:26 10° N 21:47:41 63° E 21:49:02 40° SE
Cosmos 1452 Rocket 3.7 21:42:32 10° N 21:47:43 55° ENE 21:49:50 33° SE
Cosmos 2278 3.7 21:43:28 10° NNW 21:49:11 86° WSW 21:52:11 29° SSE
Cosmos 962 Rocket 4.5 21:43:21 10° N 21:49:35 82° W 21:53:54 21° S
Cosmos 1656 3.6 21:50:59 10° NNW 21:56:28 77° ENE 21:58:44 37° SSE
SPOT 1/Viking Rocket 3.7 21:59:04 38° SE 22:00:46 55° ENE 22:05:49 10° N
Cosmos 1697 Rocket 2.8 21:56:32 10° NNW 22:02:05 59° ENE 22:04:02 38° SE
MetOp-A 4.3 22:01:42 28° S 22:04:31 70° WSW 22:09:53 10° NNW
SL-8 Rocket 3.9 22:00:05 10° N 22:06:24 82° E 22:09:24 34° SSE
Cosmos 2369 4.1 22:04:33 10° NNW 22:10:09 57° WSW 22:12:47 30° S
Meteor 1-22 Rocket 4.3 22:05:05 10° N 22:10:21 56° E 22:11:43 43° SE
USA 229 DEB 4.3 22:06:12 10° NNW 22:13:06 48° NE 22:16:22 30° ESE
USA 229 4.4 22:06:19 10° NNW 22:13:12 47° NE 22:16:28 30° ESE
SL-16 R/B 4.1 22:10:12 10° NNE 22:13:35 16° NE 22:15:34 14° ENE
Cosmos 2366 rocket 3.9 22:07:45 10° N 22:13:54 68° E 22:16:01 42° SSE
Cosmos 1833 Rocket 3.3 22:08:34 10° SW 22:14:02 55° WNW 22:19:35 10° NNE
Tiangong 2 2.6 22:11:14 10° NW 22:14:09 31° NNE 22:14:31 30° NNE
Cosmos 1602 Rocket 3.4 22:14:05 62° SSE 22:14:43 78° E 22:19:03 10° N
Cosmos 158 Rocket 3.9 22:15:00 43° S 22:16:43 71° ESE 22:22:04 10° NNE
Landsat 7 3.8 22:23:14 56° ESE 22:23:48 61° ENE 22:28:29 10° N
Cosmos 1842 4.1 22:28:44 41° NE 22:28:44 41° NE 22:31:37 10° NNE
Cosmos 1271 Rocket 3.6 22:25:30 10° N 22:28:35 39° NE 22:28:35 39° NE
Meteor 2-14 Rocket 4.3 22:25:11 10° N 22:31:15 73° E 22:32:43 52° SSE
CZ-4B R/B 4.4 22:30:26 10° NNE 22:34:27 35° E 22:34:27 35° E
deb Chang Zheng 4 4.2 22:31:13 10° NNE 22:34:29 42° ENE 22:34:29 42° ENE
Terra 1.9 22:38:44 60° E 22:38:50 60° ENE 22:43:32 10° N
IGS 5A 3.9 22:39:46 51° NE 22:39:46 51° NE 22:43:20 10° N
CARTOSAT-1 3.8 22:40:58 60° NE 22:40:58 60° NE 22:44:54 10° N
ATLAS CENTAUR R/B 3.5 22:40:33 10° N 22:42:28 15° NE 22:42:28 15° NE
SL-19 R/B 3.9 22:38:12 10° NNE 22:43:27 69° ESE 22:43:40 68° ESE
ARGOS 4.2 22:43:31 29° SW 22:45:28 38° W 22:50:30 10° NNW
H-2A R/B 2.3 22:47:25 49° SW 22:48:12 55° W 22:53:10 10° NNW
Cosmos 2360 Rocket 4.4 22:47:32 10° NNE 22:49:53 12° NE 22:51:48 11° ENE
Cosmos 1980 Rocket 2.0 22:46:06 10° NNW 22:51:47 89° WSW 22:52:22 73° SSE
Meteor 2-16 Rocket 4.4 22:48:22 10° N 22:54:32 83° W 22:55:44 60° S
SPOT 5 4.3 22:55:53 22° WSW 22:56:36 23° W 23:00:06 10° NW
Cosmos 2322 Rocket 2.9 22:58:59 10° N 23:04:21 40° ENE 23:04:45 39° ENE
H-2A R/B 2.4 23:05:36 66° NW 23:05:36 66° NW 23:09:38 10° NNW
Spot 4 4.2 23:08:32 57° NE 23:08:32 57° NE 23:12:44 10° N
Cosmos 1953 3.5 23:04:28 10° N 23:07:12 39° NNE 23:07:12 39° NNE
Lacrosse 5 2.1 23:12:01 65° NNE 23:12:01 65° NNE 23:16:22 10° NE
Cosmos 972 Rocket 4.4 23:11:57 10° N 23:16:17 51° NE 23:16:17 51° NE
CZ-2C R/B 4.3 23:12:50 10° NE 23:15:50 22° ENE 23:15:50 22° ENE
Cosmos 1331 Rocket 4.3 23:12:48 10° N 23:17:24 57° NE 23:17:24 57° NE
Nadezhda 3 Rocket 4.3 23:19:34 51° SW 23:20:58 63° W 23:27:16 10° N
Cosmos 1110 Rocket 4.1 23:17:36 10° NNW 23:22:19 70° NNE 23:22:19 70° NNE
Cosmos 2239 Rocket 4.3 23:20:08 10° N 23:26:21 84° E 23:26:34 82° SE
USA 267 3.8 23:20:38 10° NE 23:25:20 42° E 23:25:20 42° E
Lacrosse 5 rocket 2.9 23:26:27 10° NNW 23:30:18 36° NNE 23:30:18 36° NNE
NOSS 3-1 (C) 4.1 23:28:43 10° NNW 23:36:29 77° ENE 23:38:12 59° SE
Cosmos 1821 Rocket 3.9 23:30:34 10° N 23:36:55 82° W 23:37:10 80° SW
ALOS 2 4.3 23:48:43 26° NE 23:48:43 26° NE 23:51:15 10° N
CZ-2C R/B 4.0 23:48:57 43° ENE 23:48:57 43° ENE 23:53:54 10° N
Cosmos 1727 Rocket 4.2 23:50:54 58° ENE 23:50:54 58° ENE 23:56:30 10° NNE
Cosmos-2242 4.5 23:47:45 10° N 23:50:17 35° N 23:50:17 35° N
Cosmos 2251 Rocket 4.2 23:54:36 48° WNW 23:54:36 48° WNW 23:59:45 10° N
